Flag for U.S.A. Weather past 2 weeks in Moreno Valley, California, U.S.A.

Now
88 °F

Sunny.


Feels Like: 85 °F
Forecast: 65 / 97 °F
Wind: 10 mph from Northwest

Location: Riverside / March Air Force Base

Current Time: Aug 28, 2014 at 7:10:17 PM

Latest Report: Aug 28, 2014 at 6:58 PM


Visibility: 10 mi

Pressure: 29.89 "Hg

Humidity: 26%

Dew point: 48 °F

Location of Moreno ValleyLocation

Historic Weather in Moreno Valley — Graph

°F

Moreno Valley temperature yesterday

Maximum temperature yesterday: 95 °F (at 2:58 PM)
Minimum temperature yesterday: 64 °F (at 4:58 AM)
Average temperature yesterday: 79 °F

Past Weeks' High & Low Weather Summary

 TemperatureHumidityPressure
High99 °F (Aug 18, 1:58 PM)100% (Aug 21, 2:58 AM)30.05 "Hg (Aug 21, 2:58 AM)
Low56 °F (Aug 24, 5:58 AM)16% (Aug 18, 1:58 PM)29.75 "Hg (Aug 18, 3:58 PM)
Average76 °F51%29.92 "Hg
* Reported Aug 13 5:58 PM — Aug 28 5:58 PM, Moreno Valley, Weather by CustomWeather, © 2014

Note: Actual official high and low records may vary slightly from our data, if they occured in-between our weather recording intervals... More about our weather records

Advertising

Moreno Valley weather history for previous 24 hours

 ConditionsComfort  
Time TempWeatherWind HumidityBarometerVisibility
5:58 PM
Aug 28
91 °FSunny.13 mph25%29.88 "Hg10 mi
4:58 PM93 °FSunny.18 mph25%29.88 "Hg10 mi
3:58 PM96 °FSunny.15 mph22%29.88 "Hg10 mi
2:58 PM98 °FSunny.16 mph19%29.89 "Hg10 mi
1:58 PM98 °FSunny.14 mph19%29.91 "Hg10 mi
12:58 PM97 °FSunny.12 mph19%29.93 "Hg10 mi
11:58 AM94 °FSunny.8 mph22%29.96 "Hg10 mi
10:58 AM90 °FSunny.5 mph26%29.98 "Hg10 mi
9:58 AM84 °FSunny.1 mph32%30.00 "Hg10 mi
8:58 AM79 °FSunny.3 mph40%30.01 "Hg10 mi
7:58 AM72 °FSunny.No wind47%30.02 "Hg10 mi
6:58 AM65 °FClear.No wind57%30.02 "Hg10 mi
5:58 AM63 °FClear.No wind62%30.01 "Hg10 mi
4:58 AM65 °FClear.2 mph58%30.00 "Hg10 mi
3:58 AM65 °FClear.No wind56%30.01 "Hg10 mi
2:58 AM67 °FClear.No wind57%30.01 "Hg10 mi
1:58 AM68 °FClear.No wind51%30.03 "Hg10 mi
12:58 AM71 °FClear.No wind48%30.02 "Hg10 mi
11:58 PM
Aug 27
72 °FClear.No wind47%30.03 "Hg10 mi
10:58 PM74 °FClear.No wind44%30.01 "Hg10 mi
9:58 PM79 °FClear.6 mph38%30.01 "Hg10 mi
8:58 PM80 °FClear.10 mph37%30.01 "Hg10 mi
7:58 PM83 °FSunny.9 mph35%29.99 "Hg10 mi
Weather by CustomWeather, © 2014

See weather overviewHow to use our weather pages